| time (UTC) | temp F | wind direction | speed MPH | gust MPH | rain 1hr in | rain 24hr in | rain mn in | humidity % | barometer mb |
| 20260509153025 | 71 | 0.0 | 0.0 | 0.00 | 0.00 | 0.00 | 52 | 1011.7 | |
| 20260509151524 | 71 | 0.0 | 0.0 | 0.00 | 0.00 | 0.00 | 53 | 1011.9 | |
| 20260509150025 | 71 | 0.0 | 0.0 | 0.00 | 0.00 | 0.00 | 55 | 1011.8 | |
| 20260509144534 | 70 | 0.0 | 0.0 | 0.00 | 0.00 | 0.00 | 57 | 1011.8 | |
| 20260509143024 | 70 | 0.0 | 0.0 | 0.00 | 0.00 | 0.00 | 56 | 1011.9 | |
| 20260509141524 | 71 | 0.0 | 0.0 | 0.00 | 0.00 | 0.00 | 53 | 1011.8 | |
| 20260509140023 | 71 | 0.0 | 0.0 | 0.00 | 0.00 | 0.00 | 50 | 1011.8 | |
| 20260509134523 | 72 | 0.0 | 0.0 | 0.00 | 0.00 | 0.00 | 51 | 1012.0 | |
| 20260509133024 | 72 | 0.0 | 0.0 | 0.00 | 0.00 | 0.00 | 51 | 1012.0 | |
| 20260509131520 | 72 | 0.0 | 0.0 | 0.00 | 0.00 | 0.00 | 51 | 1012.2 | |
| 20260509130019 | 72 | 0.0 | 0.0 | 0.00 | 0.00 | 0.00 | 53 | 1012.3 | |
| 20260509124518 | 72 | 0.0 | 0.0 | 0.00 | 0.00 | 0.00 | 54 | 1012.4 | |
| 20260509123017 | 73 | 0.0 | 0.0 | 0.00 | 0.00 | 0.00 | 53 | 1012.5 | |
| 20260509121523 | 73 | 0.0 | 0.0 | 0.00 | 0.00 | 0.00 | 54 | 1012.6 | |
| 20260509120017 | 73 | 0.0 | 0.0 | 0.00 | 0.00 | 0.00 | 58 | 1012.7 | |
| 20260509114514 | 73 | 0.0 | 0.0 | 0.00 | 0.00 | 0.00 | 57 | 1012.8 | |
| 20260509113014 | 75 | 0.0 | 0.0 | 0.00 | 0.00 | 0.00 | 54 | 1012.9 | |
| 20260509111512 | 75 | 0.0 | 0.0 | 0.00 | 0.00 | 0.00 | 52 | 1012.9 | |
| 20260509110012 | 74 | 0.0 | 0.0 | 0.00 | 0.00 | 0.00 | 52 | 1012.8 | |
| 20260509104515 | 73 | 0.0 | 0.0 | 0.00 | 0.00 | 0.00 | 52 | 1013.0 | |
| 20260509103009 | 74 | 0.0 | 0.0 | 0.00 | 0.00 | 0.00 | 50 | 1013.2 | |
| 20260509101512 | 71 | 0.0 | 0.0 | 0.00 | 0.00 | 0.00 | 54 | 1013.0 | |
| 20260509100007 | 71 | 0.0 | 0.0 | 0.00 | 0.00 | 0.00 | 54 | 1013.2 | |
| 20260509094505 | 71 | 0.0 | 0.0 | 0.00 | 0.00 | 0.00 | 54 | 1013.3 | |
| 20260509093006 | 71 | 0.0 | 0.0 | 0.00 | 0.00 | 0.00 | 55 | 1013.6 | |
| 20260509091503 | 70 | 0.0 | 0.0 | 0.00 | 0.00 | 0.00 | 57 | 1013.6 | |
| 20260509090105 | 70 | 0.0 | 0.0 | 0.00 | 0.00 | 0.00 | 58 | 1013.9 | |
| 20260509084559 | 70 | 0.0 | 0.0 | 0.00 | 0.00 | 0.00 | 62 | 1013.9 | |
| 20260509083053 | 70 | 0.0 | 0.0 | 0.00 | 0.00 | 0.00 | 64 | 1013.8 | |
| 20260509081551 | 69 | 0.0 | 0.0 | 0.00 | 0.00 | 0.00 | 65 | 1013.9 | |
| 20260509080054 | 68 | 0.0 | 0.0 | 0.00 | 0.00 | 0.00 | 65 | 1013.8 | |
| 20260509074545 | 67 | 0.0 | 0.0 | 0.00 | 0.00 | 0.00 | 67 | 1013.8 | |
| 20260509073045 | 67 | 0.0 | 0.0 | 0.00 | 0.00 | 0.00 | 69 | 1013.9 | |
| 20260509071542 | 67 | 0.0 | 0.0 | 0.00 | 0.00 | 0.00 | 70 | 1013.9 | |
| 20260509070044 | 66 | 0.0 | 0.0 | 0.00 | 0.00 | 0.00 | 73 | 1013.8 | |
| 20260509064540 | 65 | 0.0 | 0.0 | 0.00 | 0.00 | 0.00 | 73 | 1013.9 | |
| 20260509063036 | 66 | 0.0 | 0.0 | 0.00 | 0.00 | 0.00 | 74 | 1013.8 | |
| 20260509061535 | 65 | 0.0 | 0.0 | 0.00 | 0.00 | 0.00 | 74 | 1013.7 | |
| 20260509060033 | 65 | 0.0 | 0.0 | 0.00 | 0.00 | 0.00 | 77 | 1013.7 | |
| 20260509054533 | 64 | 0.0 | 0.0 | 0.00 | 0.00 | 0.00 | 78 | 1013.8 | |
| 20260509053036 | 64 | 0.0 | 0.0 | 0.00 | 0.00 | 0.00 | 78 | 1013.6 | |
| 20260509051536 | 63 | 0.0 | 0.0 | 0.00 | 0.00 | 0.00 | 78 | 1013.8 | |
| 20260509050029 | 63 | 0.0 | 0.0 | 0.00 | 0.00 | 0.00 | 79 | 1013.8 | |
| 20260509044527 | 63 | 0.0 | 0.0 | 0.00 | 0.00 | 0.00 | 78 | 1013.8 | |
| 20260509043026 | 63 | 0.0 | 0.0 | 0.00 | 0.00 | 0.00 | 78 | 1013.8 | |
| 20260509041526 | 63 | 0.0 | 0.0 | 0.00 | 0.00 | 0.00 | 77 | 1014.0 | |
| 20260509040023 | 63 | 0.0 | 0.0 | 0.00 | 0.00 | 0.00 | 75 | 1013.8 | |
| 20260509034525 | 63 | 0.0 | 0.0 | 0.00 | 0.00 | 0.00 | 73 | 1013.8 | |
| 20260509033019 | 64 | 0.0 | 0.0 | 0.00 | 0.00 | 0.00 | 72 | 1013.3 | |
| 20260509031518 | 64 | 0.0 | 0.0 | 0.00 | 0.00 | 0.00 | 70 | 1013.3 | |
| 20260509030020 | 64 | 0.0 | 0.0 | 0.00 | 0.00 | 0.00 | 70 | 1013.2 | |
| 20260509024518 | 63 | 0.0 | 0.0 | 0.00 | 0.00 | 0.00 | 70 | 1013.2 | |
| 20260509023017 | 63 | 0.0 | 0.0 | 0.00 | 0.00 | 0.00 | 70 | 1013.2 | |
| 20260509021517 | 63 | 0.0 | 0.0 | 0.00 | 0.00 | 0.00 | 70 | 1013.3 | |
| 20260509020055 | 63 | 0.0 | 0.0 | 0.00 | 0.00 | 0.00 | 70 | 1013.6 | |
| 20260509014555 | 64 | 0.0 | 0.0 | 0.00 | 0.00 | 0.00 | 71 | 1013.7 | |
| 20260509013048 | 63 | 0.0 | 0.0 | 0.00 | 0.00 | 0.00 | 72 | 1014.0 | |
| 20260509011542 | 63 | 0.0 | 0.0 | 0.00 | 0.00 | 0.00 | 74 | 1014.1 | |
| 20260509010036 | 63 | 0.0 | 0.0 | 0.00 | 0.00 | 0.00 | 77 | 1014.2 | |
| 20260509004536 | 62 | 0.0 | 0.0 | 0.00 | 0.00 | 0.00 | 78 | 1014.4 | |
| 20260509003037 | 62 | 0.0 | 0.0 | 0.00 | 0.00 | 0.00 | 79 | 1014.4 | |
| 20260509001535 | 62 | 0.0 | 0.0 | 0.00 | 0.00 | 0.00 | 79 | 1014.4 | |
| 20260509000033 | 63 | 0.0 | 0.0 | 0.00 | 0.00 | 0.00 | 79 | 1014.6 | |
| 20260508234535 | 62 | 0.0 | 0.0 | 0.00 | 0.00 | 0.00 | 80 | 1014.9 | |
| 20260508233045 | 62 | 0.0 | 0.0 | 0.00 | 0.00 | 0.00 | 79 | 1015.1 | |
| 20260508231536 | 63 | 0.0 | 0.0 | 0.00 | 0.00 | 0.00 | 78 | 1015.1 | |
| 20260508230029 | 63 | 0.0 | 0.0 | 0.00 | 0.00 | 0.00 | 76 | 1015.2 | |
| 20260508224527 | 64 | 0.0 | 0.0 | 0.00 | 0.00 | 0.00 | 74 | 1015.5 | |
| 20260508223029 | 64 | 0.0 | 0.0 | 0.00 | 0.00 | 0.00 | 74 | 1015.4 | |
| 20260508221527 | 64 | 0.0 | 0.0 | 0.00 | 0.00 | 0.00 | 73 | 1015.4 | |
| 20260508220026 | 64 | 0.0 | 0.0 | 0.00 | 0.00 | 0.00 | 72 | 1015.3 | |
| 20260508214527 | 64 | 0.0 | 0.0 | 0.00 | 0.00 | 0.00 | 70 | 1015.5 | |
| 20260508213022 | 64 | 0.0 | 0.0 | 0.00 | 0.00 | 0.00 | 69 | 1015.6 | |
| 20260508211529 | 65 | 0.0 | 0.0 | 0.00 | 0.00 | 0.00 | 68 | 1015.6 | |
| 20260508210021 | 64 | 0.0 | 0.0 | 0.00 | 0.00 | 0.00 | 68 | 1015.5 | |
| 20260508204521 | 65 | 0.0 | 0.0 | 0.00 | 0.00 | 0.00 | 67 | 1015.6 | |
| 20260508203020 | 65 | 0.0 | 0.0 | 0.00 | 0.00 | 0.00 | 67 | 1015.5 | |
| 20260508201520 | 65 | 0.0 | 0.0 | 0.00 | 0.00 | 0.00 | 68 | 1015.4 | |
| 20260508200026 | 65 | 0.0 | 0.0 | 0.00 | 0.00 | 0.00 | 68 | 1015.2 | |
| 20260508194519 | 65 | 0.0 | 0.0 | 0.00 | 0.00 | 0.00 | 68 | 1015.3 | |
| 20260508193019 | 65 | 0.0 | 0.0 | 0.00 | 0.00 | 0.00 | 69 | 1015.3 | |
| 20260508191523 | 65 | 0.0 | 0.0 | 0.00 | 0.00 | 0.00 | 70 | 1014.9 | |
| 20260508190021 | 65 | 0.0 | 0.0 | 0.00 | 0.00 | 0.00 | 70 | 1014.7 | |
| 20260508184518 | 65 | 0.0 | 0.0 | 0.00 | 0.00 | 0.00 | 70 | 1014.1 | |
| 20260508183018 | 65 | 0.0 | 0.0 | 0.00 | 0.00 | 0.00 | 69 | 1013.7 | |
| 20260508181520 | 65 | 0.0 | 0.0 | 0.00 | 0.00 | 0.00 | 67 | 1014.1 | |
| 20260508180019 | 65 | 0.0 | 0.0 | 0.00 | 0.00 | 0.00 | 67 | 1013.6 | |
| 20260508174519 | 65 | 0.0 | 0.0 | 0.00 | 0.00 | 0.00 | 67 | 1013.6 | |
| 20260508173018 | 65 | 0.0 | 0.0 | 0.00 | 0.00 | 0.00 | 67 | 1012.9 | |
| 20260508171524 | 65 | 0.0 | 0.0 | 0.00 | 0.00 | 0.00 | 65 | 1013.0 | |
| 20260508170017 | 66 | 0.0 | 0.0 | 0.00 | 0.00 | 0.00 | 65 | 1012.8 | |
| 20260508164516 | 66 | 0.0 | 0.0 | 0.00 | 0.00 | 0.00 | 64 | 1013.1 | |
| 20260508163015 | 66 | 0.0 | 0.0 | 0.00 | 0.00 | 0.00 | 66 | 1013.0 | |
| 20260508161514 | 66 | 0.0 | 0.0 | 0.00 | 0.00 | 0.00 | 66 | 1013.0 | |
| 20260508160016 | 66 | 0.0 | 0.0 | 0.00 | 0.00 | 0.00 | 65 | 1013.0 | |
| 20260508154513 | 67 | 0.0 | 0.0 | 0.00 | 0.00 | 0.00 | 63 | 1013.1 |